[[{"header":{"parameterUnit":"m.s-1","parameterCategory":1,"la1":30.2992,"la2":30.254,"lo1":-89.0895,"lo2":-89.0443,"dy":0.0025,"dx":0.0025,"nx":19,"ny":19,"refTime":"2026-05-16T03:00:00:Z","depth":0,"parameterNumber":2,"parameterNumberName":"U-component_of_WINDS"},"data":[0,0,0,-5.2597,-5.2599,-5.2702,-5.2703,-5.2847,-5.2848,0,0,0,0,0,0,0,0,0,0,0,-5.2575,-5.2577,-5.2597,-5.26,-5.2702,-5.2703,-5.2846,-5.2848,0,0,0,0,0,0,0,0,0,0,0,-5.2575,-5.2576,-5.2578,-5.26,-5.2702,-5.2703,-5.2846,-5.2764,0,0,0,0,0,0,0,0,0,0,-5.2661,-5.265,-5.2576,-5.2578,-5.2601,-5.2702,-5.2703,-5.2759,-5.2769,-5.2806,0,-5.2842,0,-5.2848,-5.2859,-5.2859,0,0,0,-5.2593,-5.2643,-5.2663,-5.2578,-5.2602,-5.2702,-5.2654,-5.2765,-5.2775,-5.2818,-5.2844,-5.2849,-5.285,-5.286,-5.286,-5.31,-5.3101,0,0,-5.2587,-5.2598,-5.2656,-5.267,-5.2657,-5.2651,-5.2657,-5.2771,-5.2799,-5.2845,-5.2852,-5.2852,-5.2861,-5.2862,-5.3098,-5.31,0,0,0,-5.2575,-5.2594,-5.2611,-5.2665,-5.2682,-5.2654,-5.2661,-5.2794,-5.2799,-5.2854,-5.2854,-5.2862,-5.2864,-5.3097,-5.3099,-5.318,0,0,0,-5.2572,-5.2588,-5.2609,-5.2617,-5.2681,-5.274,-5.2682,-5.2791,-5.2803,-5.2853,-5.2862,-5.2865,-5.3095,-5.3098,-5.3175,-5.3216,0,0,0,-5.2566,-5.2587,-5.2605,-5.2617,-5.2662,-5.2738,-5.2749,-5.2793,-5.2804,-5.2859,-5.2865,-5.3094,-5.3098,-5.317,-5.3207,-5.328,0,0,0,-5.2562,-5.2676,-5.2606,-5.2734,-5.2662,-5.2789,-5.2748,-5.2841,-5.2899,-5.2862,-5.3095,-5.3099,-5.3168,-5.3202,-5.3275,-5.3342,-5.3372,0,0,-5.2711,-5.2694,-5.2768,-5.2709,-5.2851,-5.2772,-5.2925,-5.2967,-5.2961,-5.3054,-5.3059,-5.3176,-5.3207,-5.3279,-5.354,-5.3563,0,0,0,-5.2819,-5.2872,-5.2908,-5.2963,-5.2999,-5.3032,-5.3049,-5.3065,-5.3143,-5.3012,-5.3224,-5.3241,-5.3284,-5.3315,-5.3335,-5.3369,-5.3115,-5.3114,-5.3114,-5.3044,-5.3033,-5.3154,-5.3155,-5.321,-5.3228,-5.327,-5.3294,-5.3266,-5.3316,-5.3342,-5.3502,-5.3539,-5.3554,-5.359,-5.3379,-5.338,-5.338,-5.338,-5.326,-5.3332,-5.3294,-5.3398,-5.3385,-5.3471,-5.3493,-5.347,-5.3548,-5.3481,-5.3517,-5.3443,-5.3581,-5.3611,-5.3386,-5.3385,-5.3384,-5.3384,-5.3383,-5.3403,-5.3436,-5.3455,-5.3534,-5.3597,-5.3595,-5.3672,-5.3657,-5.3644,-5.3681,-5.3706,-5.3704,-5.3699,-5.3695,-5.3695,-5.3696,-5.3696,-5.3697,-5.3697,-5.3543,-5.3562,-5.3629,-5.3678,-5.3712,-5.3755,-5.3775,-5.3808,-5.384,-5.3823,-5.3823,-5.3789,-5.3598,-5.3548,-5.3705,-5.3704,-5.3703,-5.3702,-5.3701,-5.3761,-5.371,-5.3813,-5.3848,-5.3903,-5.3966,-5.3949,-5.4017,-5.4042,-5.408,-5.4039,-5.3901,-5.3881,-5.3865,-5.3824,-5.4043,-5.4043,-5.4043,-5.4043,-5.388,-5.387,-5.3972,-5.4028,-5.4081,-5.4076,-5.4191,-5.4209,-5.4218,-5.4233,-5.42,-5.4145,-5.413,-5.4119,-5.4097,-5.4058,-5.4332,-5.4332,-5.4333,-5.4012,-5.4006,-5.4107,-5.4117,-5.4161,-5.4198,-5.4305,-5.437,-5.437,-5.4344,-5.4243,-5.4231,-5.4143,-5.4115,-5.4082,-5.4049,-5.3977,0,0]},{"header":{"parameterUnit":"m.s-1","parameterCategory":1,"la1":30.2992,"la2":30.254,"lo1":-89.0895,"lo2":-89.0443,"dy":0.0025,"dx":0.0025,"nx":19,"ny":19,"refTime":"2026-05-16T03:00:00:Z","depth":0,"parameterNumber":3,"parameterNumberName":"V-component_of_WINDS"},"data":[0,0,0,3.7092,3.7093,3.7135,3.7135,3.719,3.7191,0,0,0,0,0,0,0,0,0,0,0,3.708,3.7081,3.7092,3.7093,3.7135,3.7135,3.719,3.7191,0,0,0,0,0,0,0,0,0,0,0,3.708,3.7081,3.7081,3.7093,3.7135,3.7135,3.719,3.7157,0,0,0,0,0,0,0,0,0,0,3.7116,3.7107,3.708,3.7081,3.7093,3.7135,3.7135,3.7156,3.7159,3.7172,0,3.7183,0,3.7188,3.7195,3.7195,0,0,0,3.7091,3.7104,3.7114,3.7081,3.7093,3.7135,3.7116,3.7158,3.7162,3.7176,3.7184,3.7186,3.7189,3.7195,3.7195,3.7272,3.7273,0,0,3.7089,3.7088,3.7112,3.7117,3.7112,3.7114,3.7117,3.716,3.7168,3.7184,3.7187,3.719,3.7195,3.7196,3.7272,3.7272,0,0,0,3.7083,3.7087,3.7096,3.7115,3.7123,3.7115,3.7119,3.7166,3.717,3.7188,3.7191,3.7196,3.7196,3.7271,3.7272,3.7293,0,0,0,3.7082,3.7083,3.7095,3.7095,3.7122,3.7145,3.7124,3.7167,3.7172,3.719,3.7196,3.7197,3.7271,3.7272,3.7291,3.7302,0,0,0,3.7077,3.7083,3.7089,3.7095,3.7113,3.7145,3.715,3.7168,3.7173,3.7195,3.7197,3.7271,3.7272,3.729,3.73,3.7323,0,0,0,3.7071,3.7106,3.709,3.7129,3.7113,3.7158,3.715,3.7183,3.7204,3.7196,3.7271,3.7272,3.7289,3.7299,3.7321,3.7342,3.7351,0,0,3.7115,3.7111,3.7135,3.7121,3.7169,3.7151,3.7201,3.722,3.7222,3.7255,3.7257,3.7292,3.73,3.7323,3.7399,3.7406,0,0,0,3.7148,3.7165,3.7178,3.7199,3.7215,3.723,3.7242,3.725,3.7278,3.724,3.7306,3.7311,3.7324,3.7334,3.734,3.7352,3.7276,3.7276,3.7276,3.7207,3.721,3.7249,3.7257,3.7277,3.729,3.7306,3.7318,3.7313,3.7329,3.7338,3.7385,3.7396,3.7401,3.7413,3.735,3.735,3.735,3.735,3.7271,3.7295,3.729,3.7326,3.7328,3.7358,3.7372,3.7368,3.7396,3.7377,3.7389,3.7369,3.7408,3.7419,3.7351,3.7351,3.7351,3.7351,3.7351,3.731,3.7322,3.7332,3.7363,3.7387,3.7393,3.7421,3.7421,3.7422,3.7433,3.7444,3.7444,3.7443,3.7439,3.7439,3.7439,3.7439,3.7439,3.7439,3.7347,3.7357,3.7381,3.7403,3.7417,3.7435,3.745,3.7463,3.7478,3.7476,3.7476,3.747,3.7412,3.7397,3.7442,3.7441,3.7441,3.7441,3.7441,3.741,3.7396,3.7433,3.7448,3.7474,3.7498,3.7499,3.7527,3.7538,3.7551,3.7543,3.75,3.7496,3.7492,3.748,3.7542,3.7542,3.7542,3.7542,3.7443,3.7442,3.7481,3.7504,3.7526,3.7531,3.7573,3.7584,3.7594,3.7601,3.7592,3.7576,3.7571,3.757,3.7564,3.7552,3.7632,3.7632,3.7632,3.7483,3.7484,3.7519,3.753,3.7551,3.7569,3.7608,3.7634,3.7641,3.7636,3.7606,3.7602,3.7577,3.7568,3.7562,3.7552,3.7531,0,0]}]]